Home > Weather > Mersin > Past weeks

Flag for Turkey Weather for the Past 2 Weeks in Mersin, Turkey

Now
55 °F

Partly sunny.


Feels Like: 54 °F
Forecast: 35 / 54 °F
Wind: 7 mph from North

Location: Adana / Sakirpasa

Current Time: Feb 10, 2016 at 10:48:40 AM

Latest Report: Feb 10, 2016 at 9:50 AM


Visibility: N/A

Pressure: 30.15 "Hg

Humidity: 41%

Dew point: 32 °F

Location of MersinLocation

Historic Weather in Mersin — Graph

°F

Mersin Temperature Yesterday

Maximum temperature yesterday: 63 °F (at 2:20 PM)
Minimum temperature yesterday: 39 °F (at 4:20 AM)
Average temperature yesterday: 49 °F

High & Low Weather Summary for the Past Weeks

 TemperatureHumidityPressure
High70 °F (Feb 5, 12:50 PM)94% (Feb 1, 2:20 AM)30.42 "Hg (Feb 1, 2:20 AM)
Low27 °F (Jan 27, 4:20 AM)14% (Jan 26, 3:20 PM)29.77 "Hg (Feb 6, 1:20 PM)
Average49 °F56%30.20 "Hg
* Reported Jan 26 9:20 AM — Feb 10 9:20 AM, Mersin, Weather by CustomWeather, © 2016

Note: Actual official high and low records may vary slightly from our data, if they occured in-between our weather recording intervals... More about our weather records

Advertising

Mersin Weather History for the Previous 24 Hours

 ConditionsComfort  
Time TempWeatherWind HumidityBarometerVisibility
9:20 AM
Wed, Feb 10
54 °FPartly sunny.9 mph44%30.15 "HgN/A
8:50 AM52 °FPassing clouds.7 mph50%30.15 "HgN/A
8:20 AM50 °FPartly sunny.6 mph54%30.18 "HgN/A
7:50 AM46 °FPartly sunny.No wind66%30.18 "HgN/A
7:20 AM43 °FPartly sunny.5 mph71%30.18 "HgN/A
6:50 AM45 °FPassing clouds.3 mph66%30.15 "HgN/A
6:20 AM43 °FPassing clouds.No wind71%30.18 "HgN/A
5:50 AM43 °FPassing clouds.5 mph71%30.15 "HgN/A
5:20 AM41 °FPassing clouds.3 mph81%30.15 "HgN/A
4:50 AM43 °FPassing clouds.3 mph71%30.15 "HgN/A
4:20 AM43 °FPassing clouds.5 mph71%30.15 "HgN/A
3:50 AM41 °FPassing clouds.3 mph76%30.15 "HgN/A
3:20 AM43 °FPassing clouds.5 mph76%30.18 "HgN/A
2:20 AM43 °FPassing clouds.5 mph76%30.18 "HgN/A
1:50 AM43 °FPassing clouds.5 mph76%30.18 "HgN/A
1:20 AM41 °FPassing clouds.5 mph81%30.18 "HgN/A
12:50 AM43 °FPassing clouds.5 mph81%30.21 "HgN/A
12:20 AM43 °FPassing clouds.5 mph81%30.21 "HgN/A
11:20 PM
Tue, Feb 9
45 °FFog.1 mph76%30.21 "Hg3 mi
10:50 PM45 °FFog.No wind76%30.21 "Hg3 mi
10:20 PM46 °FHaze.No wind71%30.21 "Hg3 mi
9:50 PM46 °FHaze.1 mph66%30.21 "Hg3 mi
9:20 PM48 °FHaze.No wind62%30.21 "Hg2 mi
8:50 PM52 °FHaze.6 mph54%30.21 "Hg2 mi
8:20 PM50 °FHaze.1 mph58%30.21 "Hg2 mi
7:50 PM52 °FHaze.1 mph54%30.24 "Hg2 mi
7:20 PM52 °FHaze.2 mph54%30.24 "Hg2 mi
6:50 PM50 °FHaze.No wind58%30.24 "Hg2 mi
6:20 PM50 °FHaze.7 mph58%30.21 "Hg2 mi
5:20 PM57 °FClear.No wind36%30.21 "Hg10 mi
4:50 PM57 °FSunny.1 mph33%30.21 "Hg10 mi
4:20 PM59 °FSunny.5 mph34%30.21 "Hg10 mi
3:50 PM61 °FSunny.3 mph34%30.21 "Hg10 mi
3:20 PM61 °FPassing clouds.5 mph31%30.21 "HgN/A
2:50 PM61 °FPassing clouds.3 mph34%30.21 "HgN/A
2:20 PM63 °FSunny.1 mph30%30.21 "Hg10 mi
1:50 PM61 °FSunny.2 mph31%30.21 "Hg10 mi
1:20 PM61 °FSunny.3 mph34%30.21 "Hg10 mi
11:50 AM59 °FSunny.1 mph42%30.27 "Hg10 mi
11:20 AM57 °FSunny.1 mph41%30.27 "Hg10 mi
10:50 AM55 °FPassing clouds.5 mph44%30.30 "HgN/A
Weather by CustomWeather, © 2016

See weather overviewHow to use our weather pages